"startDT [UTC]","vpos","CH4 [ppm]","stdev(CH4) [ppm]","CO2 [ppm]","stdev(CO2) [ppm]","H2O_reported [%]","stdev(H2O_reported)","CavityPressure [torr]","CavityTemp [C]","OutletValve","CH4_dry [ppm]","CO2_dry [ppm]","DasTemp [C]","EtalonTemp [C]","WarmBoxTemp [C]","MPVPosition","T_ECpre [C]","T_EC1 [C]","T_EC2 [C]","p_inlet [hPa]","p_in [hPa]","p_out [hPa]","T_inlet [C]","RH_inlet [%]","dwpt_inlet [C]","T_vent [C]","RH_vent [%]","dwpt_vent [C]","flow_vent [l min-1]","flow_inlet [l min-1]","dwpt_sample [C]","T_room [C]"
2013-07-12 00:00:00,0.0,1.85900,0.00038,385.345,0.095,1.1348,0.0050,140.004,45.000,31725.86024,1.88042,390.795,35.623,45.051,45.000,0.00,0.13,-272.54,-272.61,-27,591,-8,25.9,26.1,5.0,25.7,27.3,5.4,5.73,2.49,6.0,28.5
2013-07-12 00:01:00,0.0,1.85895,0.00065,384.558,0.311,1.1702,0.0205,139.996,45.000,31724.50837,1.88124,390.211,35.625,45.051,45.000,0.00,0.13,-272.54,-272.61,-27,591,-8,25.9,27.0,5.5,25.7,28.1,5.9,5.73,2.49,6.0,28.5
2013-07-12 00:02:00,0.0,1.85878,0.00031,384.415,0.092,1.1977,0.0055,139.999,45.000,31727.83042,1.88153,390.164,35.625,45.051,45.000,0.00,0.13,-272.54,-272.61,-27,591,-8,25.9,27.7,5.8,25.7,28.9,6.3,5.73,2.49,6.0,28.5
2013-07-12 00:03:00,0.0,1.85779,0.00037,384.244,0.242,1.2150,0.0093,140.001,45.000,31730.79782,1.88100,390.060,35.625,45.051,45.000,0.00,0.13,-272.54,-272.61,-27,591,-8,25.9,28.1,6.1,25.7,29.4,6.5,5.73,2.49,6.0,28.6
2013-07-12 00:04:00,0.0,1.85875,0.00041,384.794,0.154,1.1876,0.0055,140.000,45.000,31730.49639,1.88121,390.502,35.625,45.051,45.000,0.00,0.13,-272.54,-272.61,-27,591,-8,25.9,27.4,5.7,25.7,28.6,6.1,5.73,2.50,6.0,28.6
2013-07-12 00:05:00,0.0,1.85913,0.00032,385.002,0.146,1.1677,0.0057,139.999,45.000,31728.92118,1.88136,390.627,35.632,45.051,45.000,0.00,0.13,-272.55,-272.62,-27,591,-8,25.9,26.8,5.4,25.7,28.1,5.8,5.73,2.51,6.0,28.6
2013-07-12 00:06:00,0.0,1.85940,0.00053,385.075,0.085,1.1577,0.0053,140.005,45.000,31730.70331,1.88130,390.641,35.649,45.051,45.000,0.00,0.13,-272.55,-272.61,-27,591,-8,25.9,26.6,5.3,25.7,27.8,5.7,5.73,2.51,6.0,28.6
2013-07-12 00:07:00,0.0,1.85936,0.00061,384.637,0.172,1.1734,0.0086,140.000,45.000,31730.55884,1.88167,390.292,35.651,45.051,45.000,0.00,0.13,-272.54,-272.61,-27,591,-8,26.0,27.1,5.5,25.7,28.2,6.0,5.73,2.52,6.0,28.6
2013-07-12 00:08:00,0.0,1.85889,0.00041,384.684,0.320,1.1726,0.0119,140.004,45.000,31731.89605,1.88128,390.298,35.676,45.051,45.000,0.00,0.13,-272.55,-272.62,-27,591,-8,26.0,27.0,5.5,25.7,28.2,5.9,5.73,2.53,6.1,28.7
2013-07-12 00:09:00,0.0,1.85875,0.00058,385.087,0.136,1.1528,0.0030,140.002,45.000,31730.98049,1.88065,390.621,35.684,45.051,45.000,0.00,0.13,-272.55,-272.61,-27,591,-8,26.0,26.4,5.2,25.7,27.7,5.7,5.73,2.52,6.1,28.5
2013-07-12 00:10:00,0.0,1.85839,0.00052,384.841,0.226,1.1549,0.0131,139.996,45.000,31729.24748,1.88034,390.411,35.687,45.050,45.000,0.00,0.13,-272.54,-272.61,-27,591,-8,26.0,26.6,5.3,25.7,27.7,5.7,5.73,2.53,6.1,28.5
2013-07-12 00:11:00,0.0,1.85815,0.00035,384.645,0.084,1.1731,0.0080,140.004,45.000,31733.50041,1.88042,390.288,35.683,45.050,45.000,0.00,0.13,-272.55,-272.61,-27,591,-8,26.0,27.1,5.6,25.7,28.2,6.0,5.73,2.52,6.0,28.7
2013-07-12 00:12:00,0.0,1.85831,0.00017,384.184,0.271,1.2009,0.0132,139.997,45.000,31732.43959,1.88102,389.955,35.683,45.050,45.000,0.00,0.13,-272.54,-272.61,-27,591,-8,26.0,27.7,5.9,25.7,28.9,6.3,5.73,2.51,6.1,28.6
2013-07-12 00:13:00,0.0,1.85854,0.00051,384.845,0.163,1.1818,0.0100,139.998,45.000,31731.43108,1.88109,390.517,35.688,45.050,45.000,0.00,0.13,-272.54,-272.61,-27,591,-8,26.0,27.2,5.6,25.7,28.4,6.1,5.73,2.51,6.1,28.8
2013-07-12 00:14:00,0.0,1.85923,0.00040,384.764,0.307,1.1718,0.0091,139.997,45.000,31731.22628,1.88146,390.428,35.690,45.050,45.000,0.00,0.13,-272.54,-272.61,-27,591,-8,26.0,27.0,5.5,25.7,28.2,5.9,5.73,2.50,6.1,28.9
2013-07-12 00:15:00,0.0,1.85831,0.00067,384.040,0.173,1.2076,0.0072,139.995,45.000,31730.79813,1.88136,389.845,35.688,45.050,45.000,0.00,0.13,-272.54,-272.61,-27,591,-8,26.0,27.9,6.0,25.8,29.1,6.4,5.73,2.49,6.1,28.8
2013-07-12 00:16:00,0.0,1.85848,0.00018,384.431,0.293,1.1979,0.0104,139.994,45.000,31727.54306,1.88116,390.183,35.688,45.050,45.000,0.00,0.13,-272.54,-272.61,-27,591,-8,26.0,27.6,5.8,25.8,28.8,6.3,5.73,2.50,6.1,28.7
2013-07-12 00:17:00,0.0,1.85870,0.00032,384.602,0.177,1.1922,0.0105,139.998,45.000,31729.53224,1.88132,390.307,35.700,45.051,45.000,0.00,0.13,-272.54,-272.61,-27,591,-8,26.0,27.4,5.7,25.8,28.7,6.2,5.73,2.49,6.1,28.7
2013-07-12 00:18:00,0.0,1.85873,0.00032,384.413,0.160,1.1886,0.0069,140.000,45.000,31732.12789,1.88132,390.143,35.696,45.051,45.000,0.00,0.13,-272.55,-272.61,-27,592,-8,26.0,27.4,5.7,25.8,28.6,6.2,5.73,2.49,6.1,28.6
2013-07-12 00:19:00,0.0,1.85850,0.00045,384.054,0.256,1.2100,0.0050,139.999,45.000,31731.74271,1.88150,389.863,35.717,45.050,45.000,0.00,0.13,-272.54,-272.61,-27,592,-8,26.0,27.9,6.0,25.8,29.1,6.4,5.73,2.50,6.1,28.7
2013-07-12 00:20:00,0.0,1.85873,0.00032,384.665,0.175,1.1861,0.0075,140.004,45.000,31734.43284,1.88133,390.376,35.725,45.050,45.000,0.00,0.13,-272.54,-272.61,-27,592,-8,26.0,27.3,5.7,25.8,28.5,6.1,5.73,2.50,6.1,28.6
2013-07-12 00:21:00,0.0,1.85820,0.00050,383.667,0.399,1.2233,0.0177,140.005,45.000,31735.53512,1.88149,389.541,35.723,45.050,45.000,0.00,0.13,-272.54,-272.62,-27,591,-8,26.0,28.2,6.1,25.8,29.4,6.6,5.73,2.51,6.1,28.6
2013-07-12 00:22:00,0.0,1.85822,0.00063,384.553,0.427,1.1833,0.0342,139.995,45.000,31732.26423,1.88066,390.238,35.719,45.050,45.000,0.00,0.13,-272.55,-272.61,-27,591,-8,26.0,27.1,5.6,25.8,28.4,6.1,5.73,2.51,6.1,28.7
2013-07-12 00:23:00,0.0,1.85863,0.00031,385.071,0.115,1.1428,0.0049,140.003,45.000,31734.05078,1.88037,390.551,35.736,45.050,45.000,0.00,0.13,-272.54,-272.61,-27,591,-8,26.0,26.1,5.1,25.8,27.3,5.5,5.73,2.52,6.1,28.7
2013-07-12 00:24:00,0.0,1.85903,0.00018,384.951,0.157,1.1475,0.0041,139.998,45.000,31732.82933,1.88082,390.467,35.746,45.050,45.000,0.00,0.13,-272.54,-272.61,-27,591,-8,26.0,26.3,5.1,25.8,27.4,5.6,5.73,2.52,6.1,28.7
2013-07-12 00:25:00,0.0,1.85887,0.00031,384.596,0.167,1.1670,0.0067,139.999,45.000,31735.81689,1.88104,390.199,35.749,45.050,45.000,0.00,0.13,-272.54,-272.61,-27,591,-8,26.0,26.7,5.4,25.8,27.9,5.8,5.73,2.52,6.1,28.7
2013-07-12 00:26:00,0.0,1.85911,0.00053,384.773,0.219,1.1671,0.0073,139.998,45.000,31734.12261,1.88128,390.393,35.750,45.050,45.000,0.00,0.13,-272.54,-272.61,-27,592,-8,26.0,26.7,5.4,25.8,27.9,5.9,5.73,2.52,6.1,28.7
2013-07-12 00:27:00,0.0,1.85882,0.00033,384.652,0.080,1.1734,0.0026,140.001,45.000,31735.44383,1.88111,390.286,35.745,45.050,45.000,0.00,0.13,-272.54,-272.61,-27,592,-8,26.0,26.9,5.5,25.8,28.1,6.0,5.73,2.52,6.1,28.7
2013-07-12 00:28:00,0.0,1.85861,0.00042,384.454,0.167,1.1779,0.0079,139.999,45.000,31734.99375,1.88100,390.121,35.750,45.050,45.000,0.00,0.13,-272.54,-272.62,-27,592,-8,26.0,27.0,5.6,25.8,28.2,6.0,5.73,2.52,6.1,28.7
2013-07-12 00:29:00,0.0,1.85868,0.00056,384.470,0.206,1.1830,0.0065,140.002,45.000,31736.58122,1.88117,390.147,35.750,45.051,45.000,0.00,0.13,-272.55,-272.61,-27,592,-8,26.0,27.1,5.6,25.8,28.3,6.1,5.73,2.51,6.1,28.7
2013-07-12 00:30:00,0.0,1.85848,0.00016,384.571,0.126,1.1821,0.0075,139.994,45.000,31737.53924,1.88096,390.251,35.750,45.051,45.000,0.00,0.13,-272.54,-272.61,-27,592,-8,26.0,27.1,5.6,25.8,28.3,6.1,5.73,2.51,6.1,28.7
2013-07-12 00:31:00,0.0,1.85836,0.00043,384.585,0.169,1.1840,0.0126,140.000,45.000,31740.98802,1.88086,390.278,35.755,45.051,45.000,0.00,0.13,-272.54,-272.61,-27,592,-8,26.0,27.1,5.6,25.8,28.3,6.1,5.73,2.50,6.1,28.6
2013-07-12 00:32:00,0.0,1.85855,0.00038,384.340,0.061,1.1985,0.0054,140.002,45.000,31740.11469,1.88124,390.109,35.758,45.051,45.000,0.00,0.13,-272.54,-272.62,-27,591,-8,26.0,27.4,5.8,25.8,28.7,6.3,5.73,2.50,6.1,28.5
2013-07-12 00:33:00,0.0,1.85844,0.00041,384.633,0.158,1.1861,0.0107,140.000,45.000,31740.31144,1.88110,390.323,35.756,45.051,45.000,0.00,0.13,-272.54,-272.61,-27,592,-8,26.0,27.2,5.7,25.8,28.4,6.2,5.73,2.49,6.2,28.5
2013-07-12 00:34:00,0.0,1.85820,0.00036,384.307,0.115,1.1948,0.0106,139.996,45.000,31739.85795,1.88084,390.070,35.760,45.051,45.000,0.00,0.13,-272.54,-272.61,-27,592,-8,26.0,27.4,5.8,25.8,28.6,6.2,5.73,2.49,6.2,28.6
2013-07-12 00:35:00,0.0,1.85847,0.00022,384.432,0.216,1.1974,0.0083,139.999,45.000,31740.92371,1.88122,390.178,35.778,45.051,45.000,0.00,0.13,-272.55,-272.61,-27,592,-8,26.1,27.4,5.8,25.8,28.6,6.2,5.73,2.49,6.1,28.8
2013-07-12 00:36:00,0.0,1.85884,0.00028,384.202,0.250,1.2000,0.0073,139.998,45.000,31741.18356,1.88161,389.996,35.795,45.051,45.000,0.00,0.13,-272.54,-272.61,-27,592,-8,26.0,27.5,5.8,25.8,28.7,6.3,5.73,2.50,6.1,28.7
2013-07-12 00:37:00,0.0,1.85878,0.00017,384.607,0.290,1.1963,0.0139,140.000,45.000,31740.32917,1.88159,390.312,35.810,45.050,45.000,0.00,0.13,-272.54,-272.61,-27,592,-8,26.0,27.3,5.7,25.8,28.6,6.2,5.73,2.50,6.2,28.7
2013-07-12 00:38:00,0.0,1.85860,0.00033,384.818,0.177,1.1721,0.0035,139.999,45.000,31740.08908,1.88096,390.444,35.809,45.050,45.000,0.00,0.13,-272.54,-272.61,-27,592,-8,26.1,26.7,5.4,25.8,28.0,5.9,5.73,2.50,6.2,28.6
2013-07-12 00:39:00,0.0,1.85873,0.00034,384.916,0.060,1.1643,0.0021,140.000,45.000,31741.88191,1.88073,390.526,35.813,45.050,45.000,0.00,0.13,-272.54,-272.61,-27,592,-8,26.1,26.5,5.3,25.8,27.8,5.8,5.73,2.51,6.2,28.6
2013-07-12 00:40:00,0.0,1.85891,0.00061,384.512,0.200,1.1821,0.0082,140.002,45.000,31742.02064,1.88143,390.222,35.812,45.050,45.000,0.00,0.13,-272.54,-272.61,-27,592,-8,26.1,27.0,5.6,25.9,28.2,6.0,5.73,2.51,6.2,28.6
2013-07-12 00:41:00,0.0,1.85838,0.00041,384.654,0.250,1.1830,0.0089,139.993,45.000,31739.51946,1.88081,390.316,35.813,45.050,45.000,0.00,0.13,-272.54,-272.61,-27,592,-8,26.1,27.0,5.6,25.8,28.2,6.1,5.73,2.51,6.2,28.7
2013-07-12 00:42:00,0.0,1.85818,0.00046,384.253,0.240,1.1933,0.0095,140.000,45.000,31742.96956,1.88094,389.989,35.813,45.050,45.000,0.00,0.13,-272.54,-272.62,-27,592,-8,26.1,27.2,5.8,25.9,28.4,6.2,5.73,2.52,6.2,28.8
2013-07-12 00:43:00,0.0,1.85894,0.00061,384.592,0.242,1.1810,0.0069,140.003,45.000,31743.09949,1.88131,390.286,35.813,45.050,45.000,0.00,0.13,-272.54,-272.61,-27,592,-8,26.1,27.0,5.6,25.9,28.2,6.0,5.73,2.52,6.2,28.8
2013-07-12 00:44:00,0.0,1.85795,0.00026,384.456,0.222,1.1895,0.0081,139.998,45.000,31743.33348,1.88067,390.164,35.813,45.050,45.000,0.00,0.13,-272.54,-272.61,-27,592,-8,26.1,27.2,5.7,25.9,28.4,6.2,5.73,2.52,6.2,28.9
2013-07-12 00:45:00,0.0,1.85781,0.00060,384.431,0.207,1.1879,0.0091,140.000,45.000,31741.70529,1.88033,390.135,35.813,45.050,45.000,0.00,0.13,-272.54,-272.61,-27,592,-8,26.1,27.1,5.7,25.9,28.3,6.1,5.73,2.52,6.2,29.0
2013-07-12 00:46:00,0.0,1.85824,0.00042,384.685,0.148,1.1743,0.0058,140.001,45.000,31743.51044,1.88056,390.327,35.817,45.050,45.000,0.00,0.13,-272.54,-272.61,-27,592,-8,26.1,26.8,5.5,25.9,28.0,6.0,5.73,2.52,6.2,28.9
2013-07-12 00:47:00,0.0,1.85872,0.00030,384.486,0.305,1.1789,0.0074,140.002,45.000,31742.72350,1.88110,390.181,35.813,45.050,45.000,0.00,0.13,-272.54,-272.61,-27,592,-8,26.1,26.9,5.6,25.9,28.1,6.0,5.73,2.52,6.2,28.9
2013-07-12 00:48:00,0.0,1.85855,0.00036,384.345,0.257,1.1969,0.0069,139.995,45.000,31742.09110,1.88125,390.059,35.813,45.050,45.000,0.00,0.13,-272.54,-272.61,-27,592,-8,26.1,27.3,5.8,25.9,28.6,6.3,5.73,2.51,6.2,28.9
2013-07-12 00:49:00,0.0,1.85837,0.00018,384.620,0.136,1.1846,0.0053,140.002,45.000,31744.95381,1.88097,390.304,35.813,45.050,45.000,0.00,0.13,-272.55,-272.61,-27,592,-8,26.1,27.0,5.6,25.9,28.2,6.1,5.73,2.51,6.2,28.8
2013-07-12 00:50:00,0.0,1.85880,0.00044,384.586,0.183,1.1837,0.0047,140.002,45.000,31744.32174,1.88124,390.298,35.817,45.050,45.000,0.00,0.13,-272.54,-272.61,-27,592,-8,26.1,27.0,5.6,25.9,28.2,6.1,5.73,2.51,6.2,28.9
2013-07-12 00:51:00,0.0,1.85836,0.00033,384.210,0.144,1.2004,0.0046,140.000,45.000,31744.40815,1.88126,389.979,35.822,45.051,45.000,0.00,0.13,-272.54,-272.61,-27,592,-8,26.1,27.4,5.8,25.9,28.6,6.3,5.73,2.50,6.2,28.9
2013-07-12 00:52:00,0.0,1.85743,0.00029,384.928,0.064,1.1634,0.0129,140.001,45.000,31744.14901,1.87965,390.499,35.813,45.051,45.000,0.00,0.13,-272.55,-272.61,-27,592,-8,26.1,26.4,5.3,25.9,27.7,5.8,5.73,2.51,6.2,28.9
2013-07-12 00:53:00,0.0,1.85752,0.00034,385.043,0.095,1.1469,0.0045,140.001,45.000,31745.60364,1.87923,390.552,35.813,45.051,45.000,0.00,0.13,-272.54,-272.61,-27,592,-8,26.1,26.0,5.1,25.9,27.2,5.6,5.73,2.50,6.2,29.0
2013-07-12 00:54:00,0.0,1.85763,0.00066,384.751,0.178,1.1608,0.0136,140.002,45.000,31743.59093,1.87968,390.341,35.813,45.050,45.000,0.00,0.13,-272.54,-272.62,-27,592,-8,26.1,26.4,5.3,25.9,27.6,5.8,5.73,2.49,6.2,28.9
2013-07-12 00:55:00,0.0,1.85674,0.00074,384.727,0.142,1.1618,0.0030,140.001,45.000,31746.21395,1.87890,390.319,35.829,45.051,45.000,0.00,0.13,-272.54,-272.61,-27,592,-8,26.1,26.4,5.3,25.9,27.6,5.8,5.73,2.49,6.2,28.9
2013-07-12 00:56:00,0.0,1.85584,0.00046,384.828,0.109,1.1554,0.0054,140.001,45.000,31747.30250,1.87781,390.368,35.831,45.050,45.000,0.00,0.13,-272.54,-272.61,-27,592,-8,26.1,26.2,5.2,25.9,27.4,5.7,5.73,2.49,6.2,28.7
2013-07-12 00:57:00,0.0,1.85566,0.00056,384.604,0.212,1.1773,0.0121,139.999,45.000,31746.66178,1.87795,390.266,35.862,45.050,45.000,0.00,0.13,-272.54,-272.61,-27,592,-8,26.1,26.8,5.6,25.9,28.0,6.0,5.73,2.50,6.2,28.8
2013-07-12 00:58:00,0.0,1.85582,0.00038,384.599,0.187,1.1775,0.0086,140.000,45.000,31744.78638,1.87822,390.259,35.855,45.050,45.000,0.00,0.13,-272.54,-272.62,-27,592,-8,26.2,26.7,5.5,25.9,28.0,6.0,5.73,2.50,6.2,28.8
2013-07-12 00:59:00,0.0,1.85527,0.00035,384.605,0.176,1.1656,0.0080,140.004,45.000,31747.09239,1.87737,390.211,35.875,45.050,45.000,0.00,0.13,-272.54,-272.61,-27,592,-8,26.2,26.5,5.4,25.9,27.7,5.8,5.73,2.50,6.2,28.8
2013-07-12 01:00:00,0.0,1.85501,0.00052,384.485,0.132,1.1753,0.0051,139.999,45.000,31747.55614,1.87732,390.122,35.875,45.050,45.000,0.00,0.13,-272.54,-272.61,-27,592,-8,26.2,26.7,5.5,25.9,27.9,6.0,5.73,2.51,6.2,28.8
2013-07-12 01:01:00,0.0,1.85581,0.00024,384.820,0.152,1.1590,0.0073,139.998,45.000,31746.88767,1.87773,390.382,35.875,45.050,45.000,0.00,0.13,-272.54,-272.61,-27,592,-8,26.2,26.3,5.3,25.9,27.5,5.7,5.73,2.51,6.2,28.8
2013-07-12 01:02:00,0.0,1.85633,0.00030,384.727,0.242,1.1558,0.0057,140.000,45.000,31747.16590,1.87822,390.311,35.875,45.050,45.000,0.00,0.13,-272.54,-272.61,-27,592,-8,26.2,26.2,5.3,25.9,27.4,5.7,5.73,2.52,6.2,28.8
2013-07-12 01:03:00,0.0,1.85561,0.00018,384.229,0.226,1.1831,0.0075,140.000,45.000,31750.27410,1.87810,389.901,35.876,45.050,45.000,0.00,0.13,-272.54,-272.61,-27,592,-8,26.2,26.9,5.6,26.0,28.1,6.1,5.73,2.52,6.2,28.8
2013-07-12 01:04:00,0.0,1.85486,0.00083,384.203,0.217,1.1891,0.0088,140.000,45.000,31750.44579,1.87756,389.901,35.878,45.051,45.000,0.00,0.13,-272.54,-272.61,-27,592,-8,26.2,27.0,5.7,26.0,28.2,6.1,5.73,2.52,6.3,28.7
2013-07-12 01:05:00,0.0,1.85501,0.00048,384.635,0.155,1.1652,0.0100,139.998,45.000,31749.62596,1.87699,390.248,35.897,45.051,45.000,0.00,0.13,-272.54,-272.61,-27,592,-8,26.2,26.4,5.4,26.0,27.6,5.8,5.73,2.52,6.3,28.7
2013-07-12 01:06:00,0.0,1.85501,0.00048,384.808,0.231,1.1607,0.0152,140.000,45.000,31750.62051,1.87712,390.363,35.918,45.051,45.000,0.00,0.13,-272.54,-272.61,-27,592,-8,26.2,26.2,5.3,26.0,27.5,5.8,5.73,2.52,6.3,28.7
2013-07-12 01:07:00,0.0,1.85525,0.00011,385.006,0.098,1.1394,0.0053,140.006,45.000,31752.21898,1.87678,390.492,35.932,45.050,45.000,0.00,0.13,-272.54,-272.61,-27,592,-8,26.2,25.7,5.0,26.0,26.9,5.5,5.73,2.52,6.3,28.9
2013-07-12 01:08:00,0.0,1.85546,0.00025,384.585,0.195,1.1696,0.0095,140.001,45.000,31751.55716,1.87760,390.200,35.929,45.050,45.000,0.00,0.13,-272.54,-272.62,-27,592,-8,26.2,26.4,5.4,26.0,27.7,5.9,5.73,2.51,6.3,29.0
2013-07-12 01:09:00,0.0,1.85525,0.00043,384.937,0.079,1.1566,0.0063,139.999,45.000,31752.54304,1.87722,390.484,35.938,45.050,45.000,0.00,0.13,-272.55,-272.61,-27,592,-8,26.2,26.1,5.2,26.0,27.4,5.7,5.73,2.51,6.3,28.9
2013-07-12 01:10:00,0.0,1.85580,0.00040,384.949,0.059,1.1546,0.0052,139.998,45.000,31750.17346,1.87757,390.499,35.938,45.050,45.000,0.00,0.13,-272.54,-272.61,-27,592,-8,26.2,26.0,5.2,26.0,27.3,5.7,5.73,2.51,6.3,28.8
2013-07-12 01:11:00,0.0,1.85673,0.00025,384.729,0.149,1.1658,0.0070,140.003,45.000,31751.59112,1.87872,390.354,35.938,45.050,45.000,0.00,0.13,-272.54,-272.61,-27,592,-8,26.2,26.3,5.4,26.0,27.6,5.8,5.73,2.51,6.3,28.8
2013-07-12 01:12:00,0.0,1.85675,0.00034,383.969,0.236,1.2118,0.0177,140.001,45.000,31749.65265,1.87972,389.810,35.938,45.050,45.000,0.00,0.13,-272.54,-272.61,-27,592,-8,26.2,27.4,6.0,26.0,28.7,6.4,5.73,2.50,6.3,28.9
2013-07-12 01:13:00,0.0,1.85571,0.00050,383.787,0.180,1.2355,0.0078,139.999,45.000,31751.88639,1.87936,389.716,35.938,45.050,45.000,0.00,0.13,-272.54,-272.61,-27,592,-8,26.2,27.9,6.2,26.0,29.3,6.7,5.73,2.51,6.3,28.9
2013-07-12 01:14:00,0.0,1.85518,0.00071,384.222,0.209,1.2199,0.0105,139.996,45.000,31750.24120,1.87838,390.068,35.938,45.050,45.000,0.00,0.13,-272.54,-272.61,-27,592,-8,26.2,27.5,6.0,26.0,28.9,6.5,5.73,2.50,6.3,28.9
2013-07-12 01:15:00,0.0,1.85570,0.00063,384.630,0.097,1.1915,0.0058,139.998,45.000,31752.01009,1.87833,390.354,35.938,45.050,45.000,0.00,0.13,-272.54,-272.61,-27,592,-8,26.2,26.8,5.7,26.0,28.2,6.2,5.73,2.50,6.3,29.0
2013-07-12 01:16:00,0.0,1.85606,0.00042,384.369,0.329,1.2012,0.0204,139.997,45.000,31751.04696,1.87877,390.134,35.938,45.050,45.000,0.00,0.13,-272.54,-272.61,-27,592,-8,26.2,27.0,5.8,26.0,28.4,6.2,5.73,2.49,6.3,29.1
2013-07-12 01:17:00,0.0,1.85567,0.00041,384.541,0.081,1.1917,0.0050,140.001,45.000,31753.15941,1.87845,390.284,35.938,45.050,45.000,0.00,0.13,-272.54,-272.61,-27,592,-9,26.2,26.9,5.7,26.0,28.2,6.2,5.73,2.49,6.3,29.0
2013-07-12 01:18:00,0.0,1.85478,0.00038,384.577,0.146,1.1854,0.0112,140.000,45.000,31752.72969,1.87734,390.285,35.938,45.050,45.000,0.00,0.13,-272.54,-272.61,-27,592,-8,26.2,26.7,5.6,26.0,28.1,6.1,5.73,2.49,6.3,29.0
2013-07-12 01:19:00,0.0,1.85380,0.00045,384.293,0.186,1.2000,0.0082,140.000,45.000,31751.93821,1.87665,390.049,35.939,45.050,45.000,0.00,0.13,-272.54,-272.62,-27,592,-8,26.2,27.0,5.8,26.0,28.4,6.3,5.73,2.49,6.3,29.1
2013-07-12 01:20:00,0.0,1.85393,0.00039,384.738,0.181,1.1809,0.0093,140.004,45.000,31755.40984,1.87632,390.406,35.969,45.050,45.000,0.00,0.13,-272.54,-272.61,-27,592,-8,26.2,26.5,5.5,26.0,27.9,6.0,5.73,2.50,6.3,29.0
2013-07-12 01:21:00,0.0,1.85393,0.00051,384.969,0.076,1.1585,0.0056,139.991,45.000,31752.46151,1.87587,390.543,35.990,45.051,45.000,0.00,0.13,-272.54,-272.61,-27,592,-8,26.2,26.0,5.2,26.0,27.3,5.7,5.73,2.51,6.3,29.0
2013-07-12 01:22:00,0.0,1.85437,0.00026,384.742,0.130,1.1690,0.0090,139.999,45.000,31754.92522,1.87644,390.368,35.994,45.050,45.000,0.00,0.13,-272.54,-272.62,-27,592,-8,26.2,26.2,5.3,26.0,27.6,5.9,5.73,2.51,6.3,29.0
2013-07-12 01:23:00,0.0,1.85464,0.00035,384.870,0.096,1.1629,0.0050,139.995,45.000,31753.67457,1.87665,390.458,35.993,45.050,45.000,0.00,0.13,-272.54,-272.61,-27,592,-8,26.3,26.1,5.3,26.0,27.4,5.8,5.73,2.51,6.3,28.9
2013-07-12 01:24:00,0.0,1.85479,0.00025,385.011,0.078,1.1522,0.0044,140.001,45.000,31756.46566,1.87665,390.546,36.000,45.050,45.000,0.00,0.13,-272.54,-272.61,-27,592,-8,26.3,25.8,5.1,26.0,27.1,5.6,5.73,2.51,6.3,29.0
2013-07-12 01:25:00,0.0,1.85406,0.00043,384.720,0.149,1.1677,0.0086,139.996,45.000,31756.00773,1.87629,390.343,36.000,45.050,45.000,0.00,0.13,-272.54,-272.61,-27,592,-8,26.3,26.2,5.3,26.0,27.5,5.9,5.73,2.51,6.4,29.1
2013-07-12 01:26:00,0.0,1.85447,0.00038,384.683,0.102,1.1628,0.0073,140.001,45.000,31757.57449,1.87640,390.271,36.000,45.050,45.000,0.00,0.13,-272.54,-272.61,-27,593,-9,26.3,26.1,5.3,26.0,27.4,5.8,5.73,2.52,6.3,29.0
2013-07-12 01:27:00,0.0,1.85460,0.00019,384.858,0.106,1.1645,0.0069,139.998,45.000,31758.20389,1.87670,390.440,35.998,45.050,45.000,0.00,0.13,-272.54,-272.61,-28,592,-9,26.3,26.1,5.3,26.1,27.4,5.8,5.73,2.51,6.4,29.0
2013-07-12 01:28:00,0.0,1.85469,0.00037,385.023,0.088,1.1565,0.0062,139.998,45.000,31758.01618,1.87656,390.586,36.000,45.050,45.000,0.00,0.13,-272.54,-272.61,-27,592,-9,26.3,25.9,5.2,26.1,27.2,5.7,5.73,2.52,6.4,29.0
2013-07-12 01:29:00,0.0,1.85456,0.00026,384.706,0.103,1.1694,0.0066,140.005,45.000,31758.70248,1.87672,390.323,36.000,45.051,45.000,0.00,0.13,-272.54,-272.61,-27,592,-9,26.3,26.2,5.4,26.1,27.5,5.9,5.73,2.52,6.4,29.1
2013-07-12 01:30:00,0.0,1.85494,0.00049,384.729,0.164,1.1694,0.0086,140.006,45.000,31759.82793,1.87703,390.368,36.002,45.051,45.000,0.00,0.13,-272.54,-272.61,-27,592,-9,26.3,26.2,5.4,26.1,27.5,5.9,5.73,2.52,6.4,29.1
2013-07-12 01:31:00,0.0,1.85426,0.00023,384.488,0.171,1.1851,0.0089,140.001,45.000,31759.57501,1.87684,390.176,36.014,45.051,45.000,0.00,0.13,-272.54,-272.61,-27,593,-8,26.3,26.5,5.6,26.1,27.9,6.1,5.73,2.51,6.4,29.1
2013-07-12 01:32:00,0.0,1.85448,0.00021,384.688,0.189,1.1750,0.0102,139.998,45.000,31759.92949,1.87671,390.347,36.011,45.050,45.000,0.00,0.13,-272.54,-272.61,-27,593,-9,26.3,26.4,5.5,26.1,27.7,6.0,5.73,2.51,6.4,29.2
2013-07-12 01:33:00,0.0,1.85418,0.00057,384.694,0.226,1.1888,0.0157,140.005,45.000,31761.45823,1.87681,390.388,36.049,45.051,45.000,0.00,0.13,-272.54,-272.61,-27,593,-9,26.3,26.6,5.6,26.1,27.9,6.1,5.73,2.51,6.4,29.1
2013-07-12 01:34:00,0.0,1.85438,0.00095,385.014,0.134,1.1542,0.0105,139.999,45.000,31759.03712,1.87610,390.573,36.060,45.050,45.000,0.00,0.13,-272.54,-272.61,-27,593,-9,26.3,25.8,5.1,26.1,27.1,5.7,5.73,2.51,6.4,29.0
2013-07-12 01:35:00,0.0,1.85428,0.00060,384.672,0.217,1.1784,0.0181,140.000,45.000,31759.54754,1.87677,390.337,36.061,45.050,45.000,0.00,0.13,-272.54,-272.61,-28,593,-9,26.3,26.4,5.5,26.1,27.7,6.0,5.73,2.51,6.4,29.0
2013-07-12 01:36:00,0.0,1.85394,0.00025,384.633,0.103,1.1807,0.0094,139.996,45.000,31760.79939,1.87628,390.313,36.058,45.050,45.000,0.00,0.13,-272.54,-272.62,-28,593,-9,26.3,26.4,5.5,26.1,27.7,6.0,5.73,2.51,6.4,29.1
2013-07-12 01:37:00,0.0,1.85410,0.00032,384.792,0.169,1.1702,0.0115,140.001,45.000,31762.69463,1.87636,390.402,36.063,45.050,45.000,0.00,0.13,-272.54,-272.61,-27,593,-9,26.3,26.1,5.3,26.1,27.5,5.9,5.73,2.50,6.4,29.0
2013-07-12 01:38:00,0.0,1.85402,0.00047,384.985,0.099,1.1571,0.0090,140.001,45.000,31764.00784,1.87588,390.557,36.065,45.050,45.000,0.00,0.13,-272.54,-272.61,-27,593,-9,26.3,25.8,5.2,26.1,27.1,5.7,5.73,2.50,6.4,28.8
2013-07-12 01:39:00,0.0,1.85354,0.00037,384.507,0.132,1.1865,0.0141,140.001,45.000,31763.67828,1.87606,390.216,36.080,45.051,45.000,0.00,0.13,-272.54,-272.61,-27,592,-9,26.3,26.6,5.6,26.1,27.8,6.1,5.73,2.50,6.4,29.0
2013-07-12 01:40:00,0.0,1.85318,0.00029,384.503,0.194,1.1951,0.0147,139.999,45.000,31762.20651,1.87585,390.250,36.096,45.051,45.000,0.00,0.13,-272.54,-272.61,-27,593,-9,26.4,26.7,5.7,26.1,28.0,6.2,5.73,2.50,6.4,29.1
2013-07-12 01:41:00,0.0,1.85386,0.00046,384.472,0.153,1.1949,0.0071,140.004,45.000,31764.70397,1.87646,390.217,36.116,45.051,45.000,0.00,0.13,-272.54,-272.61,-27,593,-9,26.4,26.7,5.7,26.1,28.1,6.2,5.73,2.50,6.4,29.2
2013-07-12 01:42:00,0.0,1.85371,0.00037,384.695,0.125,1.1817,0.0132,140.004,45.000,31766.32368,1.87613,390.370,36.122,45.050,45.000,0.00,0.13,-272.54,-272.61,-27,593,-9,26.4,26.3,5.5,26.2,27.6,6.0,5.73,2.50,6.4,29.3
2013-07-12 01:43:00,0.0,1.85425,0.00036,384.551,0.206,1.1810,0.0100,140.001,45.000,31763.88693,1.87656,390.256,36.125,45.050,45.000,0.00,0.13,-272.54,-272.61,-27,593,-9,26.4,26.4,5.5,26.2,27.6,6.0,5.73,2.50,6.4,29.3
2013-07-12 01:44:00,0.0,1.85397,0.00037,384.305,0.213,1.2092,0.0137,140.003,45.000,31762.40691,1.87694,390.098,36.125,45.050,45.000,0.00,0.13,-272.54,-272.61,-27,593,-9,26.4,27.0,5.9,26.2,28.3,6.4,5.73,2.50,6.4,29.3
2013-07-12 01:45:00,0.0,1.85365,0.00053,384.418,0.237,1.1971,0.0162,140.007,45.000,31765.04963,1.87630,390.171,36.134,45.050,45.000,0.00,0.13,-272.54,-272.61,-27,593,-9,26.4,26.7,5.7,26.2,27.9,6.2,5.73,2.50,6.4,29.3
2013-07-12 01:46:00,0.0,1.85443,0.00028,384.346,0.141,1.1879,0.0106,139.999,45.000,31762.00786,1.87696,390.061,36.155,45.050,45.000,0.00,0.13,-272.54,-272.61,-28,593,-9,26.4,26.5,5.6,26.2,27.7,6.0,5.73,2.50,6.4,29.2
2013-07-12 01:47:00,0.0,1.85519,0.00086,384.959,0.173,1.1507,0.0132,139.995,45.000,31759.20516,1.87685,390.489,36.165,45.050,45.000,0.00,0.13,-272.54,-272.61,-28,593,-9,26.4,25.5,5.1,26.2,26.7,5.6,5.73,2.50,6.4,29.2